Tracking 19176 objects as of 27-May-2018
HD Live streaming from Space Station
objects crossing your sky now

COSMOS 663

Track COSMOS 663 now!
10-day predictions
COSMOS 663 is classified as:


NORAD ID: 7349
Int'l Code: 1974-048A
Perigee: 968.5 km
Apogee: 1,005.1 km
Inclination: 83.0 °
Period: 104.7 minutes
Semi major axis: 7357 km
RCS: 2.064 m2 (large)
Launch date: June 27, 1974
Source: Commonwealth of Independent States (former USSR) (CIS)
Launch site: PLESETSK MISSILE AND SPACE COMPLEX (PKMTR)
aabbcc
Your satellite tracking list
Your tracking list is empty




NASA's NSSDC Master Catalog

Two Line Element Set (TLE):
1  7349U 74048A   18146.70740141 +.00000059 +00000-0 +45579-4 0  9998
2  7349 082.9509 195.2273 0024865 189.4036 291.6360 13.75563297203519
Source of the keplerian elements: AFSPC